Location: Chilton Park
(37.7711°N, 100.0276°W)
Time: 14:05:21
(UTC+00:00)

Cosmos 2227 Rocket - Pass Details

Date: 09 July 2022
Orbit: 840 x 844 km, 71.0° (Epoch: 18 August)

Event Time Altitude Azimuth Distance (km) Brightness Sun altitude
Exits shadow 08:57:18 32° 267° (W) 1,412 3.0 -22.4°
Maximum altitude 08:58:45 37° 299° (WNW) 1,282 3.1 -22.2°
Drops below altitude 10° 09:04:00 10° 6° (N) 2,469 5.5 -21.6°
Sets 09:06:38 0° 15° (NNE) 3,408 6.6 -21.3°
